Regional Weather Roundup
Issued by NWS

Home | Current Version | Previous Version | Text Only | Print | Product List | Glossary Off
Versions: 1 2 3 4 5 6 7 8 9 10 11 12 13 14 15 16 17 18 19 20 21 22 23 24 25 26 27 28 29 30 31 32 33 34 35 36 37 38 39 40 41 42 43 44 45 46 47 48 49

000
ASUS43 KDMX 301007
RWRIA

WEATHER ROUNDUP FOR IOWA
NATIONAL WEATHER SERVICE DES MOINES IA
500 AM CDT SUN AUG 30 2015

NOTE: "FAIR" INDICATES FEW OR NO CLOUDS BELOW 12,000 FEET WITH NO
SIGNIFICANT WEATHER AND/OR OBSTRUCTIONS TO VISIBILITY.

* - THESE STATIONS ARE NOT NWS STATIONS...THUS NOT UNDER NWS
QUALITY CONTROL.  THEY ALSO DO NOT REPORT WEATHER SUCH
AS PRECIPITATION OR FOG.

IAZ001>003-012>014-020>022-031>034-043>046-301100-
   NORTHWEST IOWA

CITY           SKY/WX    TMP DP  RH WIND       PRES   REMARKS
CARROLL *      CLOUDY    63  63 100 CALM      30.04S
CHEROKEE *     CLOUDY    63  63 100 S12       30.03S
DENISON *      CLOUDY    64  63  94 S5        30.02S
LE MARS *      CLOUDY    64  63  94 S13       30.02S
ORANGE CITY *  CLOUDY    63  63 100 S10G17    30.02S FOG
SHELDON *      CLOUDY    63  61  94 S10       30.01S
SPENCER        CLOUDY    62  59  90 S9        30.03S
STORM LAKE *   CLOUDY   N/A N/A N/A S9        30.05S
$$

IAZ055>058-069>071-079>083-090>094-301100-
   SOUTHWEST IOWA

CITY           SKY/WX    TMP DP  RH WIND       PRES   REMARKS
ATLANTIC *     CLOUDY    63  63 100 CALM      30.04F
AUDUBON *      CLOUDY    63  61  94 CALM      30.05S
CLARINDA *     FOG       61  61 100 CALM      30.05F VSB<1/4
COUNCIL BLFS *   N/A     61  61 100 S5        30.04S FOG
CRESTON *      FOG       63  63 100 E5        30.06S VSB 0
HARLAN  *      PTCLDY    63 N/A N/A CALM      30.07F
LAMONI         FOG       64  63  96 VRB3      30.04S VSB 1/4
RED OAK *      FOG       63  63 100 CALM      30.04F VSB 0
SHENANDOAH *   FOG       57  57 100 CALM      30.04F VSB 1/4
$$

IAZ047>049-059>061-072>074-084-301100-
   CENTRAL IOWA

CITY           SKY/WX    TMP DP  RH WIND       PRES   REMARKS
AMES           FOG       57  56  96 CALM      30.04S VSB 1/2
ANKENY *       FOG       57  57 100 CALM      30.04R VSB 1/4
CHARITON *     FOG       59  59 100 CALM      30.04S VSB 0
DES MOINES     FOG       61  59  93 CALM      30.03S VSB 1
GRINNELL*      CLOUDY    63  63 100 CALM      30.04F
KNOXVILLE *    CLOUDY    61  61 100 CALM      30.02S FOG
MARSHALLTOWN   CLOUDY    60  59  96 CALM      30.04S
PELLA *        FOG       63  63 100 CALM      30.05S VSB<1/4
PERRY *        CLOUDY    63  61  94 CALM      30.04S FOG
$$

IAZ004>006-015-016-023>025-035-036-301100-
   NORTH CENTRAL IOWA

CITY           SKY/WX    TMP DP  RH WIND       PRES   REMARKS
ALGONA *       MOCLDY    59  59 100 S6        30.04S
CLARION *      FOG       55  55 100 S5        30.05R VSB 1/4
ESTHERVILLE    CLOUDY    60  60 100 SW9       30.03R
FORT DODGE *   CLOUDY    61  59  94 CALM      30.05S
MASON CITY     FOG       54  54 100 S6        30.06R VSB 1/4
FOREST CITY *  FOG       52  52 100 SE3       30.04S VSB 1/2
IOWA FALLS *   FOG       59  57  94 CALM      30.06S VSB 1/2
$$

IAZ007>011-017>019-026>030-037>042-050>054-066-301100-
   NORTHEAST IOWA

CITY           SKY/WX    TMP DP  RH WIND       PRES   REMARKS
CEDAR RAPIDS   FOG       63  63 100 E5        30.04S VSB 1/4
CHARLES CITY * FOG       57  57 100 S5        30.05S VSB 1/4
CLINTON *      MOCLDY    57  57 100 CALM      30.07R
DECORAH *      CLOUDY    59  57  94 CALM      30.05R
DUBUQUE        CLEAR     58  57  97 E5        30.06R
MONTICELLO *   FOG       57  57 100 CALM      30.05S VSB 0
OELWEIN *      FOG       55  55 100 SE5       30.05F VSB 1/4
WATERLOO       CLEAR     56  55  97 N3        30.04S FOG
$$

IAZ064-065-067-068-078-301100-
   EAST CENTRAL IOWA

CITY           SKY/WX    TMP DP  RH WIND       PRES   REMARKS
DAVENPORT      FOG       58  58 100 N3        30.05S VSB 1/4
IOWA CITY      FOG       64  64 100 CALM      30.05S VSB 1/4
MT. PLEASANT * FOG       68  64  88 CALM      30.04S VSB 1/2
MUSCATINE *    FOG       63  63 100 CALM      30.05R VSB 0
QUAD CITIES    FOG       61  59  93 CALM      30.04R VSB 1/4
$$

IAZ062-063-075>077-085>089-095>099-301100-
   SOUTHEAST IOWA

CITY           SKY/WX    TMP DP  RH WIND       PRES   REMARKS
BURLINGTON     CLOUDY    67  67 100 NE5       30.03S FOG
FAIRFIELD *    FOG       64  64 100 E3        30.04S VSB 0
FORT MADISON * FOG       66  66 100 CALM      30.04S VSB 1/2
KEOKUK *       FOG       68  68 100 N7        30.02S VSB 1/2
OSKALOOSA *    FOG       63  61  94 CALM      30.04S VSB 3/4
CENTERVILLE *  FOG       64  64 100 CALM      30.05S VSB 1/2
OTTUMWA        FOG       65  65 100 SE3       30.02S VSB 1/4
WASHINGTON *     N/A    N/A N/A N/A MISG        N/A
$$

ABBREVIATIONS USED IN REMARKS
   TC - TEMPERATURES IN CELSIUS
  WCI - WIND CHILL INDEX
   HX - HEAT INDEX
  VSB - VISIBILITY
$$



USA.gov is the U.S. government's official web portal to all federal, state and local government web resources and services.